Tracking 19817 objects as of 18-Aug-2019
HD Live streaming from Space Station
objects crossing your sky now

COSMOS 2251 DEB


COSMOS 2251 DEB is no longer on orbit


NORAD ID: 38002
Int'l Code: 1993-036BRD
Perigee: N/A
Apogee: N/A
Inclination: N/A
Period: N/A
Semi major axis: N/A
RCS: N/A
Launch date: June 16, 1993
Source: Commonwealth of Independent States (former USSR) (CIS)
Launch site: PLESETSK MISSILE AND SPACE COMPLEX (PKMTR)
Decay date: 2014-10-05

Note: This is SATELLITE DEBRIS
aabbcc
Your satellite tracking list
Your tracking list is empty




NASA's NSSDC Master Catalog

Two Line Element Set (TLE):
1 38002U 93036BRD 14127.26040991  .00096115  00000-0  71983-2 0  9992
2 38002 073.9844 336.9148 0036617 103.7899 226.6514 15.01668868227460
Source of the keplerian elements: AFSPC